KF5RM Weather Reports


time (UTC)temp
C
wind
direction
speed
KPH
gust
KPH
rain 1hr
cm
rain 24hr
cm
rain mn
cm
humidity
%
barometer
mb
20260506165003 30 0 0.0 0.0 0.00 0.00 0.00 72 1010.9
20260506163503 29 0 0.0 0.0 0.00 0.00 0.00 73 1010.9
20260506163004 29 0 0.0 0.0 0.00 0.00 0.00 73 1010.9
20260506162003 28 0 0.0 0.0 0.00 0.00 0.00 74 1010.8
20260506161503 28 0 0.0 0.0 0.00 0.00 0.00 74 1010.7
20260506161003 28 0 0.0 0.0 0.00 0.00 0.00 74 1010.6
20260506160503 28 0 0.0 0.0 0.00 0.00 0.00 74 1010.6
20260506160003 29 0 0.0 0.0 0.00 0.00 0.00 74 1010.6
20260506155503 28 0 0.0 0.0 0.00 0.00 0.00 75 1010.5
20260506155003 28 0 0.0 0.0 0.00 0.00 0.00 75 1010.6
20260506154503 28 0 0.0 0.0 0.00 0.00 0.00 75 1010.5
20260506153003 28 0 0.0 0.0 0.00 0.00 0.00 75 1010.3
20260506152503 28 0 0.0 0.0 0.00 0.00 0.00 76 1010.3
20260506152003 28 0 0.0 0.0 0.00 0.00 0.00 75 1010.2
20260506151503 28 0 0.0 0.0 0.00 0.00 0.00 76 1010.2
20260506151003 28 0 0.0 0.0 0.00 0.00 0.00 76 1010.1
20260506150504 28 0 0.0 0.0 0.00 0.00 0.00 77 1010.0
20260506150003 28 0 0.0 0.0 0.00 0.00 0.00 78 1010.0
20260506144503 27 0 0.0 0.0 0.00 0.00 0.00 79 1010.1
20260506144004 27 129 0.0 9.7 0.00 0.00 0.00 81 1010.0
20260506143503 27 129 0.0 9.7 0.00 0.00 0.00 80 1009.9
20260506143003 27 0 0.0 0.0 0.00 0.00 0.00 81 1010.0
20260506142503 27 0 0.0 0.0 0.00 0.00 0.00 82 1009.9
20260506142004 27 0 0.0 0.0 0.00 0.00 0.00 82 1009.9
20260506141504 27 0 0.0 0.0 0.00 0.00 0.00 82 1009.9
20260506141003 26 0 0.0 0.0 0.00 0.00 0.00 82 1009.9
20260506140004 26 0 0.0 0.0 0.00 0.00 0.00 82 1009.7
20260506135504 26 0 0.0 0.0 0.00 0.00 0.00 82 1009.6
20260506135003 26 0 0.0 0.0 0.00 0.00 0.00 83 1009.6
20260506134503 26 0 0.0 0.0 0.00 0.00 0.00 82 1009.6
20260506134003 26 0 0.0 0.0 0.00 0.00 0.00 82 1009.6
20260506133503 26 0 0.0 0.0 0.00 0.00 0.00 82 1009.6
20260506133003 26 0 0.0 0.0 0.00 0.00 0.00 82 1009.5
20260506132503 26 0 0.0 0.0 0.00 0.00 0.00 82 1009.5
20260506131503 26 0 0.0 0.0 0.00 0.00 0.00 82 1009.7
20260506131003 26 0 0.0 0.0 0.00 0.00 0.00 82 1009.7
20260506125503 26 0 0.0 0.0 0.00 0.00 0.00 82 1009.3
20260506124004 26 0 0.0 0.0 0.00 0.00 0.00 82 1009.1
20260506123503 26 0 0.0 0.0 0.00 0.00 0.00 82 1009.0
20260506122003 26 0 0.0 0.0 0.00 0.00 0.00 82 1008.9
20260506121503 26 106 0.0 8.0 0.00 0.00 0.00 82 1008.8
20260506121003 26 106 0.0 8.0 0.00 0.00 0.00 82 1008.9
20260506120503 26 0 0.0 0.0 0.00 0.00 0.00 82 1008.8
20260506115503 26 85 0.0 1.6 0.00 0.00 0.00 82 1008.8
20260506115004 26 85 1.6 1.6 0.00 0.00 0.00 82 1008.7
20260506114004 26 100 1.6 12.9 0.00 0.00 0.00 82 1008.5
20260506113503 26 100 0.0 12.9 0.00 0.00 0.00 82 1008.6
20260506113003 26 0 0.0 0.0 0.00 0.00 0.00 83 1008.5
20260506112503 26 0 0.0 0.0 0.00 0.00 0.00 83 1008.6
20260506112003 26 150 0.0 1.6 0.00 0.00 0.00 83 1008.6
20260506111504 26 150 0.0 1.6 0.00 0.00 0.00 83 1008.5
20260506111003 26 0 0.0 0.0 0.00 0.00 0.00 83 1008.5
20260506110503 26 0 0.0 0.0 0.00 0.00 0.00 83 1008.5
20260506110004 26 0 0.0 0.0 0.00 0.00 0.00 83 1008.5
20260506105503 26 0 0.0 0.0 0.00 0.00 0.00 83 1008.4
20260506105003 26 0 0.0 0.0 0.00 0.00 0.00 82 1008.5
20260506104504 26 0 0.0 0.0 0.00 0.00 0.00 82 1008.4
20260506104004 26 0 0.0 0.0 0.00 0.00 0.00 82 1008.5
20260506103004 26 0 0.0 0.0 0.00 0.00 0.00 82 1008.4
20260506102503 26 0 0.0 0.0 0.00 0.00 0.00 81 1008.5
20260506101003 26 0 0.0 0.0 0.00 0.00 0.00 81 1008.2
20260506100004 26 0 0.0 0.0 0.00 0.00 0.00 81 1008.4
20260506095503 26 0 0.0 0.0 0.00 0.00 0.00 81 1008.2
20260506095003 26 0 0.0 0.0 0.00 0.00 0.00 81 1008.3
20260506094003 26 0 0.0 0.0 0.00 0.00 0.00 81 1008.3
20260506093504 26 0 0.0 0.0 0.00 0.00 0.00 81 1008.3
20260506093004 26 0 0.0 0.0 0.00 0.00 0.00 81 1008.2
20260506092503 26 0 0.0 0.0 0.00 0.00 0.00 81 1008.1
20260506092004 26 0 0.0 0.0 0.00 0.00 0.00 81 1008.1
20260506091504 26 0 0.0 0.0 0.00 0.00 0.00 81 1008.0
20260506091003 26 0 0.0 0.0 0.00 0.00 0.00 81 1008.0
20260506090004 26 0 0.0 0.0 0.00 0.00 0.00 81 1008.2
20260506085504 26 0 0.0 0.0 0.00 0.00 0.00 81 1008.3
20260506085003 26 0 0.0 0.0 0.00 0.00 0.00 81 1008.4
20260506084503 26 0 0.0 0.0 0.00 0.00 0.00 81 1008.2
20260506084003 26 0 0.0 0.0 0.00 0.00 0.00 81 1008.3
20260506083503 26 0 0.0 0.0 0.00 0.00 0.00 81 1008.2
20260506083004 26 0 0.0 0.0 0.00 0.00 0.00 81 1008.1
20260506082503 26 0 0.0 0.0 0.00 0.00 0.00 81 1008.1
20260506082004 27 0 0.0 0.0 0.00 0.00 0.00 80 1008.1
20260506081503 27 0 0.0 0.0 0.00 0.00 0.00 80 1008.1
20260506081003 27 0 0.0 0.0 0.00 0.00 0.00 80 1008.3
20260506080504 27 0 0.0 0.0 0.00 0.00 0.00 81 1008.3
20260506073503 27 0 0.0 0.0 0.00 0.00 0.00 81 1008.1
20260506073004 27 0 0.0 0.0 0.00 0.00 0.00 80 1008.2
20260506072502 27 0 0.0 0.0 0.00 0.00 0.00 81 1008.3
20260506072003 27 0 0.0 0.0 0.00 0.00 0.00 80 1008.4
20260506071502 27 0 0.0 0.0 0.00 0.00 0.00 80 1008.3
20260506071002 27 0 0.0 0.0 0.00 0.00 0.00 80 1008.2
20260506070502 27 0 0.0 0.0 0.00 0.00 0.00 80 1008.2
20260506062502 27 0 0.0 0.0 0.00 0.00 0.00 80 1008.1
20260506062003 27 0 1.6 0.0 0.00 0.00 0.00 80 1008.1
20260506061002 27 136 1.6 14.5 0.00 0.00 0.00 80 1008.1
20260506051002 27 142 0.0 12.9 0.00 0.00 0.00 77 1007.7
20260506050503 27 0 0.0 0.0 0.00 0.00 0.00 77 1007.8
20260506044503 28 146 3.2 14.5 0.00 0.00 0.00 75 1007.5
20260506044002 28 145 1.6 20.9 0.00 0.00 0.00 75 1007.5
20260506043502 28 145 0.0 20.9 0.00 0.00 0.00 74 1007.4
20260506043003 28 127 0.0 1.6 0.00 0.00 0.00 74 1007.5
20260506042502 28 122 0.0 1.6 0.00 0.00 0.00 73 1007.5
20260506041502 29 0 0.0 0.0 0.00 0.00 0.00 72 1007.6
20260506041002 29 0 0.0 0.0 0.00 0.00 0.00 71 1007.6
20260506040502 29 0 0.0 0.0 0.00 0.00 0.00 70 1007.4
20260506040003 29 135 0.0 8.0 0.00 0.00 0.00 70 1007.4
20260506035502 30 135 0.0 8.0 0.00 0.00 0.00 69 1007.4
20260506035002 30 0 0.0 0.0 0.00 0.00 0.00 68 1007.4
20260506034503 30 0 0.0 0.0 0.00 0.00 0.00 68 1007.4
20260506033502 30 0 0.0 0.0 0.00 0.00 0.00 67 1007.2
20260506033002 30 0 0.0 0.0 0.00 0.00 0.00 67 1007.1
20260506032502 30 0 0.0 0.0 0.00 0.00 0.00 66 1007.2
20260506032003 30 129 0.0 14.5 0.00 0.00 0.00 66 1007.1
20260506031502 31 129 0.0 14.5 0.00 0.00 0.00 65 1007.0
20260506030502 31 146 0.0 11.3 0.00 0.00 0.00 64 1006.7
20260506025502 31 147 1.6 1.6 0.00 0.00 0.00 63 1006.6
20260506025002 31 139 1.6 14.5 0.00 0.00 0.00 62 1006.5
20260506024002 32 132 1.6 14.5 0.00 0.00 0.00 61 1006.3
20260506023502 32 131 0.0 14.5 0.00 0.00 0.00 60 1006.2
20260506023002 32 129 0.0 12.9 0.00 0.00 0.00 59 1006.1
20260506022502 32 0 0.0 0.0 0.00 0.00 0.00 58 1006.0
20260506022002 32 0 0.0 0.0 0.00 0.00 0.00 57 1005.9
20260506021502 32 0 0.0 0.0 0.00 0.00 0.00 57 1005.8
20260506021002 32 139 0.0 1.6 0.00 0.00 0.00 56 1005.8
20260506020502 32 139 0.0 1.6 0.00 0.00 0.00 56 1005.8
20260506020003 33 0 0.0 0.0 0.00 0.00 0.00 56 1005.8
20260506015503 33 0 0.0 0.0 0.00 0.00 0.00 55 1005.6
20260506015002 33 124 0.0 12.9 0.00 0.00 0.00 55 1005.5
20260506014502 33 120 0.0 12.9 0.00 0.00 0.00 54 1005.4
20260506013502 33 121 1.6 14.5 0.00 0.00 0.00 54 1005.4
20260506013003 33 121 0.0 14.5 0.00 0.00 0.00 53 1005.2
20260506012502 33 134 0.0 1.6 0.00 0.00 0.00 52 1005.1
20260506012002 34 0 0.0 0.0 0.00 0.00 0.00 51 1005.0
20260506011502 34 0 0.0 0.0 0.00 0.00 0.00 50 1005.0
20260506011002 34 108 1.6 1.6 0.00 0.00 0.00 49 1005.0
20260506010502 35 127 1.6 11.3 0.00 0.00 0.00 48 1004.9
20260506010003 35 127 1.6 11.3 0.00 0.00 0.00 48 1004.8
20260506005503 35 129 1.6 16.1 0.00 0.00 0.00 48 1004.7
20260506005002 35 128 1.6 16.1 0.00 0.00 0.00 47 1004.5
20260506004503 35 125 1.6 20.9 0.00 0.00 0.00 47 1004.6
20260506004003 35 125 0.0 20.9 0.00 0.00 0.00 46 1004.6
20260506003502 35 0 0.0 0.0 0.00 0.00 0.00 46 1004.4
20260506003003 36 125 0.0 1.6 0.00 0.00 0.00 45 1004.5
20260506002502 36 125 0.0 1.6 0.00 0.00 0.00 45 1004.3
20260506001502 36 0 0.0 0.0 0.00 0.00 0.00 44 1004.4
20260506001002 36 0 1.6 0.0 0.00 0.00 0.00 44 1004.3
20260506000502 36 118 3.2 20.9 0.00 0.00 0.00 44 1004.4
20260506000003 36 126 1.6 20.9 0.00 0.00 0.00 43 1004.3
20260505235502 36 133 0.0 16.1 0.00 0.00 0.00 43 1004.3
20260505234502 37 124 1.6 17.7 0.00 0.00 0.00 42 1004.2
20260505234002 37 124 0.0 17.7 0.00 0.00 0.00 41 1004.3
20260505233502 37 126 0.0 4.8 0.00 0.00 0.00 40 1004.2
20260505232502 38 0 0.0 0.0 0.00 0.00 0.00 38 1004.3
20260505232003 38 0 0.0 0.0 0.00 0.00 0.00 38 1004.2
20260505231502 38 0 0.0 0.0 0.00 0.00 0.00 38 1004.3
20260505231003 38 0 0.0 0.0 0.00 0.00 0.00 38 1004.3
20260505230502 38 141 1.6 9.7 0.00 0.00 0.00 37 1004.3
20260505230003 38 141 0.0 9.7 0.00 0.00 0.00 37 1004.3
20260505225503 38 140 0.0 6.4 0.00 0.00 0.00 37 1004.4
20260505225002 38 0 0.0 0.0 0.00 0.00 0.00 37 1004.4
20260505224502 38 0 0.0 0.0 0.00 0.00 0.00 37 1004.4
20260505224003 38 0 0.0 0.0 0.00 0.00 0.00 37 1004.4
20260505223503 38 0 0.0 0.0 0.00 0.00 0.00 37 1004.4
20260505223003 38 0 0.0 0.0 0.00 0.00 0.00 36 1004.4
20260505222503 38 0 0.0 0.0 0.00 0.00 0.00 37 1004.5
20260505222003 38 0 0.0 0.0 0.00 0.00 0.00 37 1004.5
20260505221502 38 0 0.0 0.0 0.00 0.00 0.00 37 1004.5
20260505221002 38 0 0.0 0.0 0.00 0.00 0.00 37 1004.5
20260505220003 38 0 0.0 0.0 0.00 0.00 0.00 37 1004.6
20260505215003 38 0 0.0 0.0 0.00 0.00 0.00 36 1004.6
20260505214503 38 0 0.0 0.0 0.00 0.00 0.00 37 1004.7
20260505214003 38 0 0.0 0.0 0.00 0.00 0.00 38 1004.8
20260505213503 38 0 0.0 0.0 0.00 0.00 0.00 38 1004.9
20260505213003 38 0 0.0 0.0 0.00 0.00 0.00 39 1005.0
20260505212002 37 0 0.0 0.0 0.00 0.00 0.00 39 1005.0
20260505211502 37 0 0.0 0.0 0.00 0.00 0.00 40 1005.0
20260505211003 37 0 0.0 0.0 0.00 0.00 0.00 41 1005.2
20260505210003 37 0 0.0 0.0 0.00 0.00 0.00 41 1005.2
20260505205503 37 0 0.0 0.0 0.00 0.00 0.00 42 1005.3
20260505204503 37 0 0.0 0.0 0.00 0.00 0.00 41 1005.6
20260505203503 37 135 0.0 11.3 0.00 0.00 0.00 42 1005.7
20260505203003 37 135 0.0 11.3 0.00 0.00 0.00 42 1005.9
20260505202502 37 231 0.0 1.6 0.00 0.00 0.00 42 1005.9
20260505202003 37 231 0.0 1.6 0.00 0.00 0.00 41 1006.0
20260505201503 37 0 0.0 0.0 0.00 0.00 0.00 41 1006.1
20260505201003 37 0 0.0 0.0 0.00 0.00 0.00 43 1006.2
20260505200503 36 0 1.6 0.0 0.00 0.00 0.00 43 1006.5
20260505194502 36 0 0.0 0.0 0.00 0.00 0.00 45 1006.9
20260505194003 36 0 0.0 0.0 0.00 0.00 0.00 44 1007.0
20260505193502 35 0 0.0 0.0 0.00 0.00 0.00 46 1007.1
20260505193004 35 0 0.0 0.0 0.00 0.00 0.00 47 1007.4
20260505192003 35 135 1.6 11.3 0.00 0.00 0.00 47 1007.6
20260505191503 35 130 1.6 11.3 0.00 0.00 0.00 47 1007.7
20260505191002 35 124 0.0 9.7 0.00 0.00 0.00 46 1007.8
20260505185503 35 141 0.0 11.3 0.00 0.00 0.00 49 1007.9
20260505185002 35 141 0.0 11.3 0.00 0.00 0.00 49 1007.9
20260505184503 34 0 0.0 0.0 0.00 0.00 0.00 50 1008.0
20260505184003 34 0 0.0 0.0 0.00 0.00 0.00 50 1007.9
20260505183503 34 0 0.0 0.0 0.00 0.00 0.00 51 1007.9
20260505182502 34 0 0.0 0.0 0.00 0.00 0.00 52 1008.3
20260505182003 34 137 0.0 6.4 0.00 0.00 0.00 52 1008.4
20260505181003 33 202 0.0 1.6 0.00 0.00 0.00 53 1008.4
20260505180503 33 219 0.0 1.6 0.00 0.00 0.00 54 1008.4
20260505180004 33 97 0.0 1.6 0.00 0.00 0.00 53 1008.5
20260505174503 33 148 0.0 9.7 0.00 0.00 0.00 54 1008.8
20260505174002 33 0 0.0 0.0 0.00 0.00 0.00 54 1008.8
20260505173503 32 170 0.0 9.7 0.00 0.00 0.00 55 1008.7
20260505173004 32 172 0.0 9.7 0.00 0.00 0.00 56 1008.9
20260505172003 32 0 0.0 0.0 0.00 0.00 0.00 59 1008.9
20260505171503 32 131 0.0 8.0 0.00 0.00 0.00 59 1009.0
20260505171003 32 131 0.0 8.0 0.00 0.00 0.00 59 1009.1
20260505170503 31 0 0.0 0.0 0.00 0.00 0.00 60 1009.3
20260505170003 31 0 0.0 0.0 0.00 0.00 0.00 61 1009.1